Regional Weather Roundup
Issued by NWS

Home | Current Version | Previous Version | Text Only | Print | Product List | Glossary Off
Versions: 1 2 3 4 5 6 7 8 9 10 11 12 13 14 15 16 17 18 19 20 21 22 23 24 25 26 27

000
ASUS45 KTFX 030410
RWRMT
MONTANA REGIONAL WEATHER ROUNDUP
NATIONAL WEATHER SERVICE GREAT FALLS MT
1000 PM MDT MON MAY 02 2016

NOTE: "FAIR" INDICATES FEW OR NO CLOUDS BELOW 12000 FEET WITH NO
SIGNIFICANT WEATHER AND/OR OBSTRUCTIONS TO VISIBILITY.

MTZ001>007-043-030500-
WEST OF THE DIVIDE

CITY           SKY/WX    TMP DP  RH WIND       PRES   REMARKS
KALISPELL      CLEAR     52  44  74 CALM      30.07R
MISSOULA       CLEAR     58  37  45 NW9       30.09R
BUTTE          CLEAR     54  26  34 S8        30.18R
MULLAN PASS    CLEAR     54  30  40 NW7       30.20R
$$

MTZ008-052>055-030500-
SOUTHWEST MONTANA

CITY           SKY/WX    TMP DP  RH WIND       PRES   REMARKS
BOZEMAN        CLEAR     51  30  44 S12       30.15R
DILLON         CLEAR     49  31  49 SE6       30.15R
ENNIS          CLEAR     45  25  45 S6        30.23R
$$

MTZ009-010-012-014-046-048-049-054-030500-
EAST SLOPES AND CENTRAL MONTANA

CITY           SKY/WX    TMP DP  RH WIND       PRES   REMARKS
CUT BANK         N/A     59  35  40 SE7       30.10R
GREAT FALLS    CLEAR     56  33  42 SE7       30.10R
MALMSTROM AFB  CLEAR     51  38  61 S6        30.10R
HELENA         CLEAR     55  23  28 CALM      30.10R
$$

MTZ011-013-016-021-045-047-050-051-030500-
NORTH CENTRAL MONTANA

CITY           SKY/WX    TMP DP  RH WIND       PRES   REMARKS
HAVRE          CLEAR     53  43  68 S12       30.06R
LEWISTOWN      CLEAR     50  35  56 S9        30.15R
N BAR RANCH      N/A     46  34  61 W7        30.18S
$$

MTZ017>020-022>027-061-062-030500-
NORTHEAST MONTANA

CITY           SKY/WX    TMP DP  RH WIND       PRES   REMARKS
GLASGOW        CLEAR     55  41  59 NE10      30.03R
JORDAN           N/A     52  44  74 W8        30.06R
SIDNEY         CLOUDY    52  34  50 NW3       30.01S
WOLF POINT     CLEAR     54  39  57 CALM      30.02R
$$

MTZ028>42-056>058-030500-
SOUTHCENTRAL AND SOUTHEAST MONTANA

CITY           SKY/WX    TMP DP  RH WIND       PRES   REMARKS
BAKER          CLEAR     47  34  60 S9        30.06R
BILLINGS       CLEAR     59  35  40 E7        30.13R
LIVINGSTON     CLEAR     53  30  41 SE6       30.14R
MILES CITY     CLEAR     55  43  63 NW9       30.04R
$$

REGIONAL REPORTS...DAKOTAS

CITY           SKY/WX    TMP DP  RH WIND       PRES   REMARKS
WILLISTON      CLOUDY    47  36  65 N3        30.01R
MINOT          CLOUDY    58  35  42 S5        29.98S
DICKINSON      CLEAR     47  32  56 E3        30.02R
BEACH            N/A     45  32  61 S6        30.08R
CROSBY           N/A     46  32  57 W6        30.02R
TIOGA            N/A     46  32  57 W3        30.06R
WATFORD CITY     N/A     48  37  66 CALM      30.02R
BISMARCK       PTCLDY    50  43  77 CALM      30.02R
GRAND FORKS    CLOUDY    56  38  50 W12       29.95S
FARGO          CLEAR     53  35  50 W9        29.97S
BUFFALO SD       N/A     50  33  52 NE8       29.99R
RAPID CITY     CLEAR     42  36  79 N7        30.05R
$$

REGIONAL REPORTS...WYOMING/IDAHO/WASHINGTON

CITY           SKY/WX    TMP DP  RH WIND       PRES   REMARKS
GILLETTE       CLEAR     47  36  65 NW10      30.12R
SHERIDAN       CLEAR     48  35  60 SW3       30.15R
BUFFALO WY       N/A    N/A N/A N/A MISG      30.18R
CODY           CLEAR     54  28  37 NW3       30.18R
YELLOWSTONE LA   N/A     34  25  69 CALM      30.29R
IDAHO FALLS    CLOUDY    54  22  28 SW6       30.18R
SALMON         CLEAR     54  34  47 CALM      30.08R
BOISE          CLEAR     63  30  28 E5        30.08R
SPOKANE        PTCLDY    71  37  28 E3        30.04S
$$

REGIONAL REPORTS...ALBERTA

CITY           SKY/WX    TMP DP  RH WIND       PRES   REMARKS
EDMONTON       PTCLDY    61  36  39 SE5       29.95S
CALGARY        PTCLDY    64  28  25 S12       30.02S
LETHBRIDGE     PTCLDY    54  37  54 S17       30.03R
MEDICINE HAT   CLEAR     59  43  55 S3        30.03S
WATERTON GATE    N/A     57  28  33 S10         N/A
MILK RIVER       N/A     52  39  62 S3          N/A
ONEFOUR          N/A     55  39  54 NE8         N/A
$$

REGIONAL REPORTS...SASKATCHEWAN

CITY           SKY/WX    TMP DP  RH WIND       PRES   REMARKS
SWIFT CURRENT  CLEAR     57  34  41 S9        30.03R
REGINA         PTCLDY    55  28  35 S3        30.01R
SASKATOON      CLEAR     63  37  39 NE3       30.00R
CYPRESS HILLS    N/A     55  32  41 N1          N/A
VAL MARIE        N/A     48  37  66 E5          N/A
ROCKGLEN         N/A     55  32  41 N2          N/A
ASSINIBOIA       N/A     63  39  42 S6          N/A
$$




USA.gov is the U.S. government's official web portal to all federal, state and local government web resources and services.